Location: Recife
(8.0585°S, 34.8848°W)
Time: 08:46:01
(UTC-03:00)

Courier 1B - Pass Details

Date: 19 April 2026
Orbit: 962 x 1209 km, 28.3° (Epoch: 13 May)

Event Time Altitude Azimuth Distance (km) Brightness Sun altitude
Rises 05:32:15 0° 272° (W) 3,956 10.0 1.7°
Reaches altitude 10° 05:35:19 10° 263° (W) 3,035 9.4 2.5°
Maximum altitude 05:41:57 33° 201° (SSW) 1,879 8.8 4.1°
Drops below altitude 10° 05:48:51 10° 140° (SE) 3,142 10.6 5.7°
Sets 05:52:06 0° 130° (SE) 4,114 11.4 6.5°
